This is the latest recevied weather packets stored in our database for station/object G4IRX-10. If no packets are shown the sender has not sent any weather packets the latest 10 day(s).
| Time | Temp. | Humidity | Pressure | Rain* | Wind** | Luminosity | Snow |
|---|---|---|---|---|---|---|---|
| 1777106848 | 12.78° C | 48% | 1022.3 hPa | - | - | - | - |
| 1777105948 | 12.22° C | 48% | 1022.4 hPa | - | - | - | - |
| 1777105048 | 11.67° C | 47% | 1022.5 hPa | - | - | - | - |
| 1777104147 | 11.11° C | 46% | 1022.6 hPa | - | - | - | - |
| 1777103248 | 10.56° C | 45% | 1022.5 hPa | - | - | - | - |
| 1777102347 | 10.56° C | 45% | 1022.6 hPa | - | - | - | - |
| 1777101447 | 10° C | 44% | 1022.7 hPa | - | - | - | - |
| 1777100547 | 10° C | 44% | 1022.8 hPa | - | - | - | - |
| 1777099647 | 10° C | 44% | 1022.7 hPa | - | - | - | - |
| 1777098747 | 9.44° C | 44% | 1022.6 hPa | - | - | - | - |
| 1777097847 | 10° C | 43% | 1022.6 hPa | - | - | - | - |
| 1777096947 | 10° C | 43% | 1022.6 hPa | - | - | - | - |
| 1777096047 | 10° C | 43% | 1022.5 hPa | - | - | - | - |
| 1777095147 | 10° C | 42% | 1022.5 hPa | - | - | - | - |
| 1777094247 | 10.56° C | 42% | 1022.3 hPa | - | - | - | - |
| 1777093347 | 10.56° C | 41% | 1022.3 hPa | - | - | - | - |
| 1777092446 | 10.56° C | 42% | 1022.2 hPa | - | - | - | - |
| 1777091546 | 10.56° C | 41% | 1022.3 hPa | - | - | - | - |
| 1777090646 | 11.11° C | 41% | 1022.3 hPa | - | - | - | - |
| 1777089746 | 11.11° C | 41% | 1022.3 hPa | - | - | - | - |
| 1777088846 | 11.67° C | 41% | 1022.2 hPa | - | - | - | - |
| 1777087946 | 11.67° C | 40% | 1022.4 hPa | - | - | - | - |
| 1777087046 | 12.22° C | 40% | 1022.5 hPa | - | - | - | - |
| 1777086146 | 12.22° C | 40% | 1022.5 hPa | - | - | - | - |
| 1777085246 | 12.78° C | 40% | 1022.7 hPa | - | - | - | - |
* Rain since midnight (hover to see other rain measurements)
** Current wind speed in m/s (hover to see current wind gust speed)